Flag for Germany Weather past 2 weeks in Öhringen, Baden-Württemberg, Germany

Now
61 °F

Passing clouds.


Feels Like: 61 °F
Forecast: 54 / 83 °F
Wind: 2 mph from East

Location: Oehringen

Current Time: Aug 1, 2015 at 12:23:05 AM

Latest Report: Aug 1, 2015 at 12:00 AM


Visibility: 41 mi

Pressure: 29.96 "Hg

Humidity: 54%

Dew point: 44 °F

Location of ÖhringenLocation

Historic Weather in Öhringen — Graph

°F

Öhringen temperature yesterday

Maximum temperature yesterday: 77 °F (at 5:00 PM)
Minimum temperature yesterday: 47 °F (at 5:00 AM)
Average temperature yesterday: 63 °F

Past Weeks' High & Low Weather Summary

 TemperatureHumidityPressure
High95 °F (Jul 17, 7:00 PM)94% (Jul 29, 3:00 PM)30.13 "Hg (Jul 29, 3:00 PM)
Low47 °F (Jul 31, 5:00 AM)19% (Jul 17, 6:00 PM)29.65 "Hg (Jul 24, 9:00 PM)
Average71 °F58%29.91 "Hg
* Reported Jul 16 11:00 PM — Jul 31 11:00 PM, Öhringen, Weather by CustomWeather, © 2015

Note: Actual official high and low records may vary slightly from our data, if they occured in-between our weather recording intervals... More about our weather records

Advertising

Öhringen weather history for previous 24 hours

 ConditionsComfort  
Time TempWeatherWind HumidityBarometerVisibility
11:00 PM
Fri, Jul 31
63 °FOvercast.2 mph49%29.96 "Hg37 mi
10:00 PM66 °FOvercast.3 mph44%29.95 "Hg43 mi
9:00 PM69 °FPartly sunny.5 mph38%29.94 "Hg40 mi
8:00 PM72 °FPartly sunny.5 mph36%29.94 "Hg43 mi
7:00 PM74 °FPassing clouds.5 mph31%29.94 "Hg43 mi
6:00 PM77 °FSunny.5 mph28%29.95 "Hg40 mi
5:00 PM77 °FSunny.3 mph27%29.96 "Hg37 mi
4:00 PM75 °FPassing clouds.5 mph30%29.98 "Hg31 mi
3:00 PM74 °FPassing clouds.3 mph30%30.01 "Hg37 mi
2:00 PM72 °FScattered clouds.3 mph34%30.03 "Hg31 mi
1:00 PM71 °FScattered clouds.3 mph37%30.06 "Hg31 mi
12:00 PM68 °FSunny.3 mph41%30.07 "Hg28 mi
11:00 AM65 °FPassing clouds.2 mph47%30.09 "Hg25 mi
10:00 AM63 °FSunny.1 mph57%30.09 "Hg16 mi
9:00 AM57 °FSunny.2 mph67%30.11 "Hg19 mi
8:00 AM52 °FSunny.No wind75%30.13 "Hg19 mi
7:00 AM47 °FSunny.1 mph88%30.13 "Hg18 mi
5:00 AM47 °FClear.1 mph88%30.12 "Hg19 mi
4:00 AM48 °FClear.1 mph87%30.11 "Hg22 mi
3:00 AM50 °FClear.2 mph83%30.11 "Hg22 mi
2:00 AM52 °FClear.1 mph77%30.10 "Hg22 mi
1:00 AM55 °FClear.1 mph69%30.09 "Hg25 mi
Weather by CustomWeather, © 2015

See weather overviewHow to use our weather pages